This is the latest recevied weather packets stored in our database for station/object SV9TNF-52. If no packets are shown the sender has not sent any weather packets the latest 10 day(s).
| Time | Temp. | Humidity | Pressure | Rain* | Wind** | Luminosity | Snow |
|---|---|---|---|---|---|---|---|
| 1788503075 | 29.44° C | 62% | 1019.3 hPa | 0 mm | 3.58 m/s, 0° | - | - |
| 1788502775 | 28.33° C | 63% | 1019.3 hPa | 0 mm | 4.02 m/s, 336° | - | - |
| 1788502475 | 28.33° C | 64% | 1019.3 hPa | 0 mm | 2.68 m/s, 327° | - | - |
| 1788502175 | 28.33° C | 65% | 1019.3 hPa | 0 mm | 3.58 m/s, 245° | - | - |
| 1788501874 | 27.78° C | 66% | 1019.3 hPa | 0 mm | 4.92 m/s, 82° | - | - |
| 1788501574 | 28.33° C | 66% | 1019.3 hPa | 0 mm | 3.13 m/s, 255° | - | - |
| 1788501274 | 28.33° C | 66% | 1019.3 hPa | 0 mm | 1.34 m/s, 257° | - | - |
| 1788500975 | 27.78° C | 67% | 1019 hPa | 0 mm | 0.45 m/s, 260° | - | - |
| 1788500674 | 27.22° C | 68% | 1019 hPa | 0 mm | 0 m/s | - | - |
| 1788500374 | 26.67° C | 69% | 1019 hPa | 0 mm | 1.34 m/s, 230° | - | - |
| 1788500074 | 26.67° C | 69% | 1019.3 hPa | 0 mm | 4.92 m/s, 244° | - | - |
| 1788499774 | 26.67° C | 71% | 1019.3 hPa | 0 mm | 1.79 m/s, 241° | - | - |
| 1788499474 | 25.56° C | 72% | 1019.3 hPa | 0 mm | 3.58 m/s, 228° | - | - |
| 1788499174 | 25.56° C | 74% | 1019.3 hPa | 0 mm | 3.13 m/s, 197° | - | - |
| 1788498874 | 25° C | 75% | 1019.3 hPa | 0 mm | 4.02 m/s, 221° | - | - |
| 1788498574 | 24.44° C | 76% | 1019.3 hPa | 0 mm | 4.47 m/s, 230° | - | - |
| 1788498273 | 24.44° C | 76% | 1019.3 hPa | 0 mm | 4.02 m/s, 190° | - | - |
| 1788497973 | 23.89° C | 77% | 1019 hPa | 0 mm | 4.02 m/s, 183° | - | - |
| 1788497673 | 23.89° C | 78% | 1019 hPa | 0 mm | 4.92 m/s, 177° | - | - |
| 1788497374 | 23.33° C | 79% | 1019 hPa | 0 mm | 1.34 m/s, 255° | - | - |
| 1788497073 | 23.33° C | 79% | 1019 hPa | 0 mm | 4.47 m/s, 206° | - | - |
| 1788496773 | 22.78° C | 80% | 1019 hPa | 0 mm | 4.02 m/s, 235° | - | - |
| 1788496473 | 22.78° C | 80% | 1019 hPa | 0 mm | 4.92 m/s, 243° | - | - |
| 1788496172 | 22.78° C | 81% | 1019 hPa | 0 mm | 3.13 m/s, 196° | - | - |
| 1788495873 | 22.78° C | 81% | 1018.3 hPa | 0 mm | 4.92 m/s, 221° | - | - |
* Rain latest hour (hover to see other rain measurements)
** Current wind speed in m/s (hover to see current wind gust speed)